Regional Weather Roundup
Issued by NWS

Home | Current Version | Previous Version | Graphics & Text | Print | Product List | Glossary On
Versions: 1 2 3 4 5 6 7 8 9 10 11 12 13 14 15 16 17 18 19 20 21 22 23 24 25 26 27 28 29 30 31 32 33 34 35 36 37 38 39 40 41 42 43 44 45 46 47 48 49 50
138
ASUS43 KBIS 232010
RWRND

NORTH DAKOTA REGIONAL WEATHER ROUNDUP
NATIONAL WEATHER SERVICE BISMARCK ND
300 PM CDT MON MAY 23 2016

NOTE: "FAIR" INDICATES FEW OR NO CLOUDS BELOW 12,000 FEET WITH NO
SIGNIFICANT WEATHER AND/OR OBSTRUCTIONS TO VISIBILITY.


NDZ001>003-009>011-017-232100-
NORTHWEST NORTH DAKOTA

CITY           SKY/WX    TMP DP  RH WIND       PRES   REMARKS
WILLISTON      MOSUNNY   71  34  25 W21G35    29.62F
MINOT          SUNNY     80  32  17 SW14G24   29.62R
MINOT AFB      SUNNY     76  35  22 W18G28    29.60S
$$

NDZ018>021-031>035-040>046-232100-
SOUTHWEST NORTH DAKOTA

CITY           SKY/WX    TMP DP  RH WIND       PRES   REMARKS
BISMARCK       MOSUNNY   80  36  20 SW15G21   29.67S
DICKINSON      MOSUNNY   68  26  20 W12G29    29.68R
GARRISON         N/A     75  33  21 W17G25    29.65S
HETTINGER ARPT MOSUNNY   72  33  24 W8        29.71F
$$

NDZ004>008-012>016-024-026-027-054-232100-
NORTHEAST NORTH DAKOTA

CITY           SKY/WX    TMP DP  RH WIND       PRES   REMARKS
GRAND FORKS    MOSUNNY   80  49  33 W14       29.63S
GRND FRKS AFB  SUNNY     81  43  26 W10       29.64S
DEVILS LAKE    MOSUNNY   78  43  28 SW16      29.65F
$$

NDZ022-023-025-028>030-036>039-047>053-232100-
SOUTHEAST NORTH DAKOTA

CITY           SKY/WX    TMP DP  RH WIND       PRES   REMARKS
FARGO          PTSUNNY   79  46  31 NW9       29.67R
JAMESTOWN      SUNNY     77  48  35 S10G17    29.67R
$$





USA.gov is the U.S. government's official web portal to all federal, state and local government web resources and services.